星链-35229(STARLINK-35229)

导读 | 豆包AI

STARLINK-35229是美国SpaceX星链计划中的一颗卫星,于2025年9月13日发射升空,归属美国航天项目。星链旨在构建全球卫星互联网星座,该卫星作为组网卫星之一,承担为全球用户提供低延迟、高速率互联网接入服务的任务,拓展了全球覆盖范围,推动星链星座的全球通信服务能力持续完善。

Basic Information
目录编号:
65600
目录名称:
STARLINK-35229
国际标识:
2025-207J
轨道中心:
EARTH
卫星名称:
星链-35229
卫星全名:
星链-35229(STARLINK-35229)
卫星状态:
在轨 (已飞行228 天)
发射日期:
2025-09-13 UTC
国别 :
美国 (US)
星等 :
--
Orbit Information
数据来源 国际轨道数据 AOE轨道数据
星历时间 2026-04-29T12:04:57+0800
4小时前
查看轨道信息
2026-04-24T00:00:00+0800
5天前
查看轨道信息
半长轴 6927.633km 6927.65km
偏心率 0.000103 0.0000917
轨道倾角 97.557° 97.586°
近地点辐角 135.031° 129.875°
升交点赤经 188.337° 182.944°
平近点角 225.100° 298.503°
近地点 548.782km 548.877km
远地点 550.21km 550.149km
周期 95.639分钟 95.640分钟
每日圈数 15.05655 15.056495
Detailed Information
固有亮度:
5
最大亮度:
2.5
卫星平台:
Starlink V1.0
覆盖范围:
全球
运营商:
太空探索技术公司
运营商所在国:
美国
制造商(研发单位):
太空探索技术公司
制造商所在国:
美国
使用方式:
暂无
Satellite Introduction
Starlink 计划是 SpaceX 推出的全球卫星互联网项目,通过发射低轨道卫星,为全球尤其是偏远地区提供高速、低延迟的互联网服务。自 2019 年起,Starlink 已部署数千颗卫星,旨在缩小全球数字鸿沟,推动互联网普及。该项目还为军事、航空等行业提供通信支持,带来广泛经济效益。
2D Orbit Map
3D Orbit Map
Orbit Altitude Analysis Chart
Orbit Inclination Analysis Chart
Orbit Comprehensive Analysis Chart
View Comprehensive Chart